Kiana, AK

11:37 AM AKDT on July 22, 2017 (GMT -0800)
Baker Memorial

Weather History for PAIK - November, 2011

Change the Weather History Date:

Monday, November 7, 2011

  Actual Average (PASK) Record (PASK)
Temperature  
Mean Temperature 0 °F -  
Max Temperature -2 °F 13 °F 33 °F (2003)
Min Temperature -7 °F 4 °F -14 °F (1996)
Degree Days  
Heating Degree Days 65    
Moisture  
Dew Point -5 °F    
Average Humidity 82    
Maximum Humidity 88    
Minimum Humidity 72    
Precipitation  
Precipitation 0.00 in - - ()
Sea Level Pressure  
Sea Level Pressure 29.95 in    
Wind  
Wind Speed 3 mph (West)    
Max Wind Speed 7 mph    
Max Gust Speed -    
Visibility 9 miles    
Events Snow    
Averages and records for this station are not official NWS values.
T = Trace of Precipitation, MM = Missing Value Source: NWS Daily Summary

Daily Weather History Graph

Daily Weather History Graph

Search for Another Location

Airport or City:

Trip Planner

Search our weather history database for the weather conditions in past years. The results will help you decide how hot, cold, wet, or windy it might be!

Date:

Astronomy

Nov. 07, 2011 Rise Set
Actual Time 10:07 AM AKST 4:41 PM AKST
Civil Twilight 9:02 AM AKST 5:47 PM AKST
Nautical Twilight 7:56 AM AKST 6:53 PM AKST
Astronomical Twilight 6:54 AM AKST 7:54 PM AKST
Moon 3:44 PM AKST (11/7) 6:25 AM AKST (11/7)
Length of Visible Light 8h 44m
Length of Day
6h 33m
Waxing Gibbous, 92% of the Moon is Illuminated
Nov 7
Waxing Gibbous
Nov 10
Full
Nov 18
Last Quarter
Nov 24
New
Dec 2
First Quarter

Hourly Weather History & Observations

Time (AKST) Temp. Windchill Dew Point Humidity Pressure Visibility Wind Dir Wind Speed Gust Speed Precip Events Conditions
12:01 AM 7.0 °F -3.3 °F 1.0 °F 77% 29.73 in 10.0 mi NNW 5.8 mph - N/A   Clear
1:01 AM 1.9 °F -5.6 °F -5.1 °F 72% 29.75 in 10.0 mi South 3.5 mph - N/A   Clear
2:01 AM -0.0 °F - -6.0 °F 76% 29.77 in 8.0 mi Calm Calm - N/A   Clear
3:01 AM 1.0 °F -6.7 °F -4.0 °F 79% 29.79 in 10.0 mi South 3.5 mph - N/A   Clear
4:01 AM 1.9 °F - -2.0 °F 83% 29.82 in 10.0 mi Calm Calm - N/A   Clear
5:01 AM -0.0 °F -9.9 °F -4.0 °F 83% 29.84 in 10.0 mi NNE 4.6 mph - N/A   Clear
6:01 AM 3.0 °F - -2.0 °F 80% 29.86 in 10.0 mi Calm Calm - N/A   Clear
7:01 AM -0.0 °F - -2.9 °F 88% 29.88 in 10.0 mi Calm Calm - N/A   Clear
8:01 AM -4.0 °F - -8.0 °F 83% 29.89 in 4.0 mi Calm Calm - N/A   Clear
8:05 AM -4.0 °F - -7.6 °F 85% 29.75 in 1.8 mi Calm Calm - N/A   Clear
8:11 AM -5.8 °F - -9.4 °F 84% 29.75 in 1.0 mi Calm Calm - N/A   Mist
8:22 AM -5.8 °F -14.5 °F -9.4 °F 84% 29.76 in 2.0 mi Variable 3.5 mph - 0.00 in Snow Light Snow
8:30 AM -7.6 °F -18.8 °F -11.2 °F 84% 29.76 in 9.0 mi West 4.6 mph - 0.00 in Snow Light Snow
9:01 AM -6.0 °F - -9.0 °F 87% 29.91 in 10.0 mi Calm Calm - 0.00 in   Clear
10:01 AM -5.1 °F - -9.0 °F 83% 29.94 in 10.0 mi Calm Calm - N/A   Clear
11:01 AM -2.9 °F -11.2 °F -6.0 °F 87% 29.96 in 9.0 mi SW 3.5 mph - N/A   Clear
12:01 PM 1.0 °F -6.7 °F -2.9 °F 83% 29.98 in 10.0 mi WSW 3.5 mph - N/A   Clear
1:01 PM 3.0 °F -8.0 °F -2.0 °F 80% 30.01 in 10.0 mi SW 5.8 mph - N/A   Clear
2:01 PM 5.0 °F - -0.0 °F 80% 30.03 in 10.0 mi Calm Calm - N/A   Clear
3:01 PM 3.9 °F - -0.9 °F 80% 30.05 in 10.0 mi Calm Calm - N/A   Clear
4:01 PM 3.0 °F - -2.0 °F 80% 30.08 in 10.0 mi Calm Calm - N/A   Clear
5:01 PM 1.9 °F -7.6 °F -2.0 °F 83% 30.10 in 10.0 mi West 4.6 mph - N/A   Clear
6:01 PM -0.0 °F -7.9 °F -5.1 °F 79% 30.13 in 10.0 mi WNW 3.5 mph - N/A   Clear
7:01 PM 3.0 °F -6.4 °F -4.0 °F 73% 30.16 in 10.0 mi SSW 4.6 mph - N/A   Clear
8:01 PM -0.9 °F -11.0 °F -5.1 °F 83% 30.18 in 10.0 mi West 4.6 mph - N/A   Clear
9:01 PM -0.0 °F -7.9 °F -4.0 °F 83% 30.21 in 10.0 mi ENE 3.5 mph - N/A   Clear
10:01 PM -2.0 °F -15.4 °F -6.0 °F 83% 30.23 in 10.0 mi NW 6.9 mph - N/A   Clear
11:01 PM -4.0 °F -12.4 °F -8.0 °F 83% 30.25 in 10.0 mi NW 3.5 mph - N/A   Clear